Showing default

COSMOS 249, 3504

Orbit data source: Space-Track

COSMOS 249, 3504 is a payload satellite owned by PKO (CIS) in LEO that was launched on Sun, 20 Oct 1968 UTC via a TSIKLON-2A launch vehicle from the Tyuratam Missile And Space Complex (TTMTR). Payload-class satellites include a variety of spacecraft equipped with specific instruments for various scientific and technological missions. These include communications satellites like Starlink; space stations such as the ISS; scientific satellites like the Hubble; Earth observation satellites from companies like Planet Labs, Umbra, and HawkEye 360; GPS; miniature CubeSats for education and research; and military/defense satellites.

Loading next visibility...
Identifier
3504, 1968-091A
Orbit
LEO
Country
Flag of CISCIS
Related business
Manufacturer
TSKBM/KB1
Mission
Spacecraft
Bus & Motor
IS, Unknown motor
Mass
1,400 kg wet, ~1,400 kg dry
Launch date (UTC)
1968-10-20 (58 years ago)
Launch vehicle
TSIKLON-2A
Launch site
Tyuratam Missile And Space Complex (TTMTR)
Object type
Payload
Rocket body
Debris
Shape & HBR
Unknown
Radar Cross Section
Large (>1 m²)

Expand to show TLE details & history
Last TLE update: 5 hours ago

TLE from 5 hours ago
0 COSMOS 249
1  3504U 68091A   26145.18834705  .00000043  00000-0  46786-4 0  9992
2  3504  62.3451 328.2775 1007091  16.7496 346.4341 12.97154118717504
Epoch: 2026-05-25T04:31Z
TLE epoch observation values (Epoch: 2026-05-25T04:31:13.185Z)
Latitude
-0.00002°
Longitude
17.69283°
Altitude
530.76 km
Speed
7.959 km/s
True Right ascension
21h 53m 06s
True Declination
0° 00' 00"
Sunlit
Object was in daylight at epoch
Visualization orbit readout
Latitude
Unknown
Longitude
Unknown
Altitude
Unknown
Speed
Unknown
Apparent Right ascension
Unknown
Apparent Declination
Unknown
Sunlit
N/A
Visualization observer readout
Local Sidereal Time
18:42:08
Azimuth
Unknown
Elevation
Unknown
Doppler factor
Unknown
Orbital elements
Apogee altitude
2,042.694 km
Perigee altitude
501.77 km
Semi-major axis
7,650.369 km
Eccentricity
0.10071
Inclination
62.3451°
RAAN
328.2775°
Arg. of periapsis
16.7496°
True anomaly
343.35366°
Mean anomaly
346.4341°
Eccentric anomaly
344.93427°
Mean motion
3.24354 °/min
Orbital period
110.99 mins
BSTAR
0.000046786
Loading maneuver chart data...
Computing Atmospheric mass density...
Loading historical data...
Loading historical data...
Loading historical data...
Loading historical data...
Loading historical data...
Loading historical data...
Loading historical data...

Documentation

Showing up to 5 results
|